This is the latest recevied weather packets stored in our database for station/object KO4DYK. If no packets are shown the sender has not sent any weather packets the latest 10 day(s).
| Time | Temp. | Humidity | Pressure | Rain* | Wind** | Luminosity | Snow |
|---|---|---|---|---|---|---|---|
| 1777593707 | 16.11° C | 71% | 1018.9 hPa | 0 mm | - | 15 W/m² | - |
| 1777593403 | 16.11° C | 69% | 1019 hPa | 0 mm | - | 23 W/m² | - |
| 1777593102 | 16.11° C | 69% | 1019.1 hPa | 0 mm | - | 25 W/m² | - |
| 1777592801 | 16.11° C | 61% | 1019.1 hPa | 0 mm | - | 39 W/m² | - |
| 1777592497 | 16.67° C | 68% | 1019.1 hPa | 0 mm | - | 42 W/m² | - |
| 1777592193 | 17.22° C | 67% | 1019.1 hPa | 0 mm | - | 44 W/m² | - |
| 1777591889 | 16.67° C | 64% | 1019 hPa | 0 mm | - | 53 W/m² | - |
| 1777591586 | 16.67° C | 62% | 1019 hPa | 0 mm | - | 69 W/m² | - |
| 1777591282 | 16.67° C | 59% | 1019.1 hPa | 0 mm | - | 66 W/m² | - |
| 1777590978 | 17.22° C | 57% | 1018.9 hPa | 0 mm | - | 80 W/m² | - |
| 1777590674 | 17.22° C | 59% | 1018.9 hPa | 0 mm | - | 101 W/m² | - |
| 1777590370 | 17.22° C | 59% | 1019.1 hPa | 0 mm | - | 80 W/m² | - |
| 1777590068 | 16.67° C | 58% | 1019.2 hPa | 0 mm | - | 85 W/m² | - |
| 1777589764 | 16.67° C | 57% | 1019 hPa | 0 mm | - | 83 W/m² | - |
| 1777589462 | 17.22° C | 57% | 1019.2 hPa | 0 mm | - | 79 W/m² | - |
| 1777589158 | 17.22° C | 58% | 1018.7 hPa | 0 mm | - | 88 W/m² | - |
| 1777588854 | 17.22° C | 53% | 1018.7 hPa | 0 mm | - | 80 W/m² | - |
| 1777588550 | 16.67° C | 54% | 1018.6 hPa | 0 mm | - | 98 W/m² | - |
| 1777588246 | 16.67° C | 51% | 1018.7 hPa | 0 mm | - | 88 W/m² | - |
| 1777587940 | 16.67° C | 52% | 1018.6 hPa | 0 mm | - | 94 W/m² | - |
| 1777587638 | 17.22° C | 52% | 1018.7 hPa | 0 mm | - | 115 W/m² | - |
| 1777587338 | 17.22° C | 52% | 1019 hPa | 0 mm | - | 120 W/m² | - |
| 1777587033 | 17.22° C | 52% | 1019 hPa | 0 mm | - | 139 W/m² | - |
| 1777586729 | 17.22° C | 51% | 1019.1 hPa | 0 mm | - | 149 W/m² | - |
| 1777586425 | 17.22° C | 51% | 1018.9 hPa | 0 mm | - | 161 W/m² | - |
* Rain latest hour (hover to see other rain measurements)
** Current wind speed in m/s (hover to see current wind gust speed)